Location: Courcelles
(49.2596°N, 1.7419°E)
Time: 20:57:11
(UTC+00:00)

ATLAS 2AS CENTAUR R/B - Pass Details

Date: 17 November 2025
Orbit: 1047 x 1163 km, 63.7° (Epoch: 10 December)

Event Time Altitude Azimuth Distance (km) Brightness Sun altitude
Rises 20:05:59 0° 317° (NW) 3,843 6.3 -38.3°
Reaches altitude 10° 20:08:40 10° 314° (NW) 2,877 5.5 -38.7°
Enters shadow 20:13:01 41° 295° (WNW) 1,491 3.7 -39.4°
